Home   Weather   Stralsund   Past weeks

Flag for Germany Past Weather in Stralsund, Mecklenburg-Western Pomerania, Germany — Yesterday and Last 2 Weeks

Now
39 °F

Passing clouds.


Feels Like: 30 °F
Forecast: 43 / 52 °F
Wind: 16 mph from East

Location: Laage

Current Time: May 1, 2017 at 6:27:23 am

Latest Report: May 1, 2017 at 5:20 am


Visibility: N/A

Pressure: 30.04 "Hg

Humidity: 75%

Dew Point: 32 °F

Location of StralsundLocation

Past Weather in Stralsund — Graph

°F

Stralsund Temperature Yesterday

Maximum temperature yesterday: 54 °F (at 2:20 pm)
Minimum temperature yesterday: 32 °F (at 5:20 am)
Average temperature yesterday: 43 °F

High & Low Weather Summary for the Past Weeks

 TemperatureHumidityPressure
High57 °F (Apr 21, 3:20 pm)100% (Apr 16, 6:13 am)30.60 "Hg (Apr 16, 6:13 am)
Low27 °F (Apr 20, 3:20 am)41% (Apr 30, 4:20 pm)29.56 "Hg (Apr 25, 7:00 am)
Average41 °F74%30.04 "Hg
* Reported Apr 16 5:20 am — May 1 5:20 am, Stralsund, Weather by CustomWeather, © 2017

Note: Actual official high and low records may vary slightly from our data, if they occured in-between our weather recording intervals... More about our weather records

Advertising

Stralsund Weather History for the Previous 24 Hours

Scroll right to see more
 ConditionsComfort  
Time TempWeatherWind HumidityBarometerVisibility
5:20 am
Mon, May 1
39 °FPassing clouds.16 mph75%30.04 "HgN/A
4:20 am39 °FChilly.14 mph75%30.04 "HgN/A
3:20 am39 °FChilly.14 mph75%30.07 "HgN/A
2:20 am39 °FChilly.14 mph75%30.07 "HgN/A
1:20 am39 °FChilly.12 mph75%30.07 "HgN/A
12:20 am41 °FQuite cool.12 mph76%30.07 "HgN/A
11:20 pm
Sun, Apr 30
41 °FQuite cool.12 mph81%30.07 "HgN/A
10:20 pm43 °FPassing clouds.13 mph76%30.07 "HgN/A
9:20 pm46 °FPassing clouds.14 mph66%30.07 "HgN/A
8:20 pm52 °FPassing clouds.16 mph47%30.07 "HgN/A
7:20 pm54 °FPassing clouds.18 mph41%30.07 "HgN/A
6:20 pm54 °FScattered clouds.20 mph41%30.07 "HgN/A
5:20 pm54 °FPassing clouds.21 mph41%30.07 "HgN/A
4:20 pm54 °FPassing clouds.21 mph41%30.09 "HgN/A
3:20 pm54 °FScattered clouds.15 mph44%30.12 "HgN/A
2:20 pm54 °FScattered clouds.16 mph47%30.12 "HgN/A
1:20 pm52 °FScattered clouds.16 mph47%30.15 "HgN/A
12:20 pm50 °FScattered clouds.16 mph50%30.15 "HgN/A
11:20 am48 °FScattered clouds.18 mph58%30.18 "HgN/A
10:20 am48 °FScattered clouds.14 mph62%30.18 "HgN/A
9:20 am45 °FScattered clouds.13 mph76%30.18 "HgN/A
8:20 am41 °FPassing clouds.8 mph87%30.18 "HgN/A
7:20 am36 °FFog.7 mph93%30.18 "Hg3 mi
6:42 am34 °FFog.5 mph100%30.18 "Hg1 mi
6:20 am34 °FFog.6 mph93%30.18 "Hg1 mi
Weather by CustomWeather, © 2017

See weather overviewHow to use our weather pages